Temperature
16 17 17 17 20 21 21 21 20 19 19 17 16 17 19 19 18 17 12 12 12 12 12 12 12 12 13 13 13 13 13 13 13 14 14 14 14 14 14 14 14 14 14 14 14 14 14 14 14
16 16 17 18 20 21 21 20 19 19 17 14 14 15 16 15 12 11 11 12 12 12 12 12 12 12 13 13 13 13 13 13 13 13 13 14 14 14 14 14 14 14 14 14 14 14 14 14 14
16 16 17 19 20 21 21 19 19 16 14 15 15 14 14 13 10 10 11 11 11 12 12 12 12 12 12 12 13 13 13 13 13 13 13 13 13 13 13 14 14 14 14 14 14 13 13 13 13
15 16 17 19 19 19 19 19 17 16 14 14 14 14 11 10 9 10 11 11 11 11 11 11 12 12 12 12 12 12 12 13 13 13 13 13 13 13 13 13 13 13 13 13 13 13 13 13 13
15 17 19 18 19 18 17 16 15 17 16 14 14 14 11 9 10 10 11 11 11 11 11 11 11 11 12 12 12 12 12 12 12 12 13 13 13 13 13 13 13 13 13 13 13 13 13 13 13
15 18 19 19 19 17 16 14 15 16 15 13 13 14 11 9 10 10 10 11 11 11 11 11 11 11 11 12 12 12 12 12 12 12 12 12 12 13 13 13 12 12 13 13 13 13 12 12 13
16 17 18 19 18 17 16 14 15 16 15 13 12 14 10 9 9 10 10 10 10 11 11 11 11 11 11 11 12 12 12 12 12 12 12 12 12 12 12 12 12 12 12 12 12 12 12 12 12
14 17 17 17 17 17 15 13 12 14 14 11 11 13 11 9 9 10 10 10 10 10 10 10 11 11 11 11 11 11 11 11 11 11 11 11 12 12 12 12 12 12 12 12 12 12 12 12 12
13 16 17 17 17 16 13 13 11 10 10 9 9 9 9 9 9 9 10 10 10 10 10 10 10 11 11 11 11 11 11 11 11 11 11 11 11 11 11 11 11 11 11 11 11 12 12 12 12
14 16 16 15 15 14 12 12 11 11 11 10 8 8 9 9 9 9 10 10 10 10 10 10 10 10 10 10 10 10 10 10 10 10 10 10 10 10 11 11 11 11 11 11 11 11 11 11 11
13 14 13 12 11 12 12 11 10 12 12 11 10 8 9 9 9 9 9 9 9 9 9 9 10 10 10 10 10 10 10 10 10 10 10 10 10 10 10 10 10 10 10 10 11 11 10 11 11
12 11 11 11 9 10 11 10 9 10 11 9 9 9 8 8 9 9 9 9 9 9 9 9 9 9 9 9 9 9 9 9 9 9 9 9 10 10 10 10 10 10 10 10 10 10 10 10 10
11 10 9 8 8 9 9 9 9 9 8 8 8 8 8 8 8 8 8 8 8 8 8 9 9 9 9 9 9 9 9 9 9 9 9 9 9 9 9 9 9 9 9 9 9 10 10 10 10
10 9 9 8 8 8 9 9 8 8 7 7 7 7 7 7 7 7 7 8 8 8 8 8 8 8 8 8 8 9 9 9 8 8 8 9 9 9 9 9 9 9 9 9 9 9 9 9 9
8 10 10 9 8 8 8 10 9 8 6 6 6 6 6 6 6 7 7 7 7 7 8 8 8 8 8 8 8 8 8 8 8 8 8 8 8 8 8 8 8 8 8 8 8 8 8 9 9
9 10 11 10 9 8 9 12 10 7 6 6 6 5 5 5 6 6 6 7 7 7 7 7 7 7 7 7 7 7 7 7 7 7 7 7 8 8 8 8 8 8 8 8 8 8 8 8 8
10 11 11 10 8 8 9 11 9 5 6 6 6 5 5 5 5 5 6 6 6 6 6 6 6 6 6 6 6 6 7 7 7 7 7 7 7 7 7 7 7 7 7 7 7 7 7 8 8
10 11 11 10 8 8 8 9 8 6 5 6 5 5 4 4 4 5 5 5 5 5 6 6 6 6 6 6 6 6 6 6 6 6 6 6 6 6 6 6 7 7 7 7 7 7 7 7 7
9 9 10 9 7 7 8 8 8 6 5 5 5 4 4 3 3 4 4 4 5 5 5 5 5 5 5 5 5 5 5 5 5 5 6 6 6 6 6 6 6 6 6 6 6 6 6 6 6
8 8 9 8 6 6 7 7 7 6 5 5 4 4 3 3 3 3 3 4 4 4 4 4 4 5 5 5 5 5 5 5 5 5 5 5 5 5 5 5 5 5 6 6 6 6 6 6 6
7 8 8 7 6 5 6 8 8 6 4 3 3 3 3 2 2 2 3 3 3 4 4 4 4 4 4 4 4 4 4 4 4 4 4 4 4 4 5 5 5 5 5 5 5 5 5 5 5
7 6 6 6 7 7 6 9 9 7 5 4 3 3 2 2 2 2 2 2 3 3 3 3 3 3 3 3 3 3 3 3 3 3 4 3 4 4 4 4 4 4 4 4 4 4 4 4 4
6 5 5 5 6 6 5 6 9 6 6 5 4 3 2 1 1 1 2 2 2 2 3 3 3 3 3 3 3 3 3 3 3 3 3 3 3 3 3 3 3 3 3 4 4 4 4 4 3
4 4 4 4 5 5 6 6 8 7 6 6 4 3 2 1 1 1 1 1 1 2 2 2 2 2 2 2 2 2 2 2 2 2 2 2 2 2 2 2 3 3 3 3 3 3 3 3 3
4 5 5 5 5 6 5 5 6 6 5 4 3 2 1 1 1 0 0 0 1 1 1 1 2 2 2 2 2 2 2 2 2 2 2 2 2 2 2 2 2 2 2 2 2 2 3 2 2
4 5 6 6 7 7 3 4 6 4 2 1 1 1 1 0 0 0 0 0 1 1 1 1 1 1 1 1 1 1 1 1 1 1 1 1 1 1 1 1 1 1 2 2 2 2 2 2 2
3 4 4 5 4 5 6 5 4 3 2 1 0 0 0 0 -0 -0 0 0 0 0 0 0 0 1 0 0 0 0 0 0 0 0 1 1 1 1 1 1 1 1 1 1 1 1 1 1 1
2 3 3 4 5 6 6 5 6 4 3 2 1 0 -0 -0 -0 -1 -0 -0 -0 -0 -0 -0 -0 -0 -0 -0 -0 -0 -0 -0 -0 -0 -0 0 0 0 0 0 0 0 0 0 0 1 0 0 0
1 1 2 4 4 5 6 6 4 4 3 2 1 -0 -1 -1 -1 -1 -1 -1 -1 -1 -1 -1 -1 -1 -1 -1 -1 -1 -1 -1 -1 -1 -1 -1 -0 -0 -1 -1 -1 -1 -0 -0 -0 -0 -0 -0 -0
1 1 2 3 3 3 5 5 1 1 0 -0 -1 -1 -1 -1 -2 -2 -2 -1 -1 -1 -1 -1 -2 -2 -1 -1 -1 -2 -2 -2 -2 -1 -1 -1 -1 -1 -1 -1 -1 -1 -1 -1 -1 -1 -1 -1 -1
Wind_Speed
5 2 2 3 5 6 9 6 4 5 4 2 2 2 3 2 1 3 4 3 4 5 5 6 7 8 9 10 11 11 11 11 11 11 11 11 12 12 12 12 12 12 12 12 13 12 12 12 13
2 1 3 3 7 10 8 7 8 5 4 5 4 2 3 2 3 4 3 3 4 6 7 7 8 9 10 11 11 11 11 11 11 11 11 11 11 12 12 12 12 12 11 12 12 12 12 12 12
1 1 3 4 7 10 7 5 6 4 5 4 4 2 1 2 3 3 3 4 5 7 7 9 10 11 11 11 11 11 11 11 12 11 11 11 11 11 11 11 11 11 11 11 11 11 11 11 11
3 3 3 6 11 9 5 3 5 7 5 3 4 4 3 3 2 3 4 5 7 7 8 10 11 11 11 11 11 11 11 11 11 11 11 11 11 11 11 11 11 11 11 11 11 11 11 11 10
2 4 6 8 11 6 4 3 6 7 6 5 5 4 4 3 3 5 5 6 7 8 8 10 11 11 11 11 11 11 10 10 11 11 11 11 11 11 11 11 10 10 10 10 11 11 10 10 10
3 4 8 12 12 7 5 5 6 7 6 5 5 5 4 4 4 5 6 6 7 8 8 9 10 10 11 11 11 11 11 10 10 10 11 11 11 10 10 10 10 10 10 10 10 10 10 10 9
5 5 9 11 10 8 6 5 6 7 7 5 4 5 5 5 4 6 6 6 7 7 7 7 8 9 10 10 11 10 10 11 11 10 10 10 11 11 10 10 10 9 10 9 9 9 9 9 9
3 4 7 9 10 8 5 5 3 5 5 2 3 5 4 6 7 6 6 6 6 6 6 6 7 8 8 9 10 10 11 10 11 11 10 10 10 10 10 10 10 9 9 9 9 9 8 8 8
3 6 10 10 8 5 6 6 3 1 4 3 2 0 2 9 10 8 6 5 5 5 5 5 6 7 7 8 9 9 10 10 9 9 9 7 7 7 7 9 10 9 9 8 8 8 8 8 8
5 8 10 4 4 4 6 5 5 5 5 4 3 2 6 10 10 10 8 7 6 5 4 4 5 6 6 7 7 7 7 8 7 7 7 6 5 6 6 8 9 9 8 8 8 7 6 5 5
4 6 4 3 2 3 5 4 4 6 6 6 6 7 9 10 10 9 8 7 6 5 4 4 4 5 5 5 6 6 6 6 7 7 6 6 5 5 5 4 5 5 5 5 5 4 4 4 3
3 3 3 2 2 3 4 4 4 5 3 1 3 8 11 11 10 9 8 7 6 5 4 3 3 4 5 5 5 5 5 5 5 5 6 5 4 4 4 3 3 3 3 3 3 3 3 3 3
5 4 2 2 2 2 3 4 4 4 2 2 5 8 9 9 9 7 6 6 5 5 4 4 4 4 4 5 4 5 5 5 5 5 5 5 4 3 3 3 3 3 3 3 2 2 2 2 2
3 4 3 2 3 2 4 4 4 5 4 5 6 7 8 8 8 7 6 6 6 5 5 4 4 4 4 4 4 4 4 4 4 5 4 4 4 3 3 3 3 3 3 2 2 2 2 1 2
3 3 3 3 4 3 3 6 7 5 6 6 6 6 7 7 7 7 6 6 5 5 5 5 5 5 5 5 4 4 4 4 4 4 4 4 4 3 3 3 3 3 2 2 2 2 2 2 1
3 4 6 4 4 4 6 10 4 4 7 7 7 7 7 6 6 6 5 5 5 5 5 5 4 5 5 5 4 4 4 4 4 3 4 4 4 3 3 3 2 3 2 2 2 2 1 1 1
5 7 8 4 3 3 7 8 2 3 6 7 7 7 7 6 5 5 5 5 5 5 6 6 5 5 5 5 5 5 4 4 4 4 5 4 4 3 2 3 2 2 2 2 1 1 1 1 2
7 8 7 7 3 5 8 8 4 4 6 7 6 6 6 5 5 5 5 5 5 5 5 6 6 5 5 4 4 4 4 3 4 4 4 5 5 4 2 2 3 2 1 2 1 1 2 1 1
5 7 8 5 1 4 9 10 8 6 6 7 7 6 6 5 4 4 5 5 6 5 5 6 6 5 5 3 2 2 2 2 3 4 4 4 4 4 3 2 2 3 1 1 2 1 1 1 1
6 8 7 3 1 3 6 10 8 7 8 7 7 6 6 5 4 4 4 5 6 6 6 6 5 5 5 3 2 1 1 1 2 2 4 5 5 4 3 3 2 2 2 2 1 1 1 1 1
7 9 8 5 2 2 4 8 8 5 6 5 6 5 5 6 6 5 5 5 5 5 5 5 5 5 4 4 3 3 2 1 1 1 2 3 4 4 3 2 2 2 1 1 2 1 1 1 1
7 4 5 6 5 4 4 6 6 5 5 7 7 6 6 5 5 5 5 5 5 4 4 4 5 4 4 4 3 3 2 1 0 1 1 2 3 3 3 3 2 1 1 1 2 2 2 2 2
2 1 3 4 6 6 6 6 6 3 6 7 7 7 6 6 6 6 6 5 5 4 4 4 4 4 4 3 3 3 2 1 0 0 1 1 2 2 2 2 2 2 2 2 2 2 3 2 3
4 3 3 2 4 7 8 9 7 4 6 5 6 6 6 5 5 5 5 5 4 4 4 4 4 3 3 4 3 3 3 2 1 1 1 1 1 2 2 2 2 2 2 3 3 3 3 3 4
3 3 2 4 5 6 3 7 7 3 3 4 4 5 4 4 5 5 5 5 5 5 5 4 4 3 3 3 3 3 3 3 3 2 2 2 2 2 3 3 3 3 3 3 3 3 3 4 4
6 5 5 6 6 4 3 7 4 1 1 2 2 2 3 4 4 5 5 5 5 5 5 5 4 4 3 3 3 2 2 3 2 3 3 3 3 3 4 4 4 4 4 4 4 4 4 4 5
4 5 3 2 2 5 6 4 5 3 3 3 3 2 3 4 3 4 4 5 5 5 5 5 5 4 4 3 3 2 2 2 3 3 3 3 4 4 4 4 5 5 5 5 4 4 5 5 5
2 2 3 4 5 7 6 6 4 3 4 3 3 3 3 3 3 3 3 4 4 5 4 4 4 4 4 3 3 3 3 3 3 3 4 4 5 4 5 5 5 5 5 5 5 5 5 5 5
3 3 4 4 4 6 6 4 2 4 3 3 3 3 3 3 3 3 3 3 4 4 4 4 4 3 3 3 3 3 3 3 3 4 4 4 5 5 5 6 6 6 6 6 6 6 6 7 6
3 4 5 5 6 5 6 5 1 1 1 1 2 2 3 3 3 2 2 3 3 3 4 4 4 4 3 3 3 4 3 4 4 5 5 5 6 6 6 6 6 7 7 7 7 7 7 7 8
Wind_Direction
332 311 236 219 209 221 229 212 197 178 174 145 125 157 161 152 153 103 86 97 105 124 118 120 105 101 95 92 90 89 87 84 81 79 78 75 72 70 69 70 69 67 66 67 68 68 70 72 71
318 253 208 211 224 224 223 210 201 193 147 135 128 138 140 123 57 87 110 102 122 118 106 106 103 105 100 96 91 87 85 83 82 80 78 77 74 72 71 71 70 69 68 68 68 68 70 70 70
227 250 205 201 224 231 221 189 189 161 148 161 147 113 119 108 107 109 97 126 128 114 103 97 95 103 101 97 92 89 87 83 81 79 76 75 73 72 70 69 68 68 68 69 69 69 70 71 70
205 178 198 221 225 230 235 176 164 160 159 168 161 135 120 67 99 101 115 129 128 112 103 99 94 99 101 98 93 90 87 84 81 78 76 75 73 73 70 68 67 68 69 70 69 70 69 70 69
211 199 205 223 230 225 222 203 181 184 178 171 176 164 138 103 90 110 122 132 130 114 101 100 95 94 95 97 95 90 87 85 81 79 77 76 74 73 72 69 67 68 71 71 71 71 71 70 68
185 205 218 226 225 219 213 201 192 201 190 173 177 173 145 121 124 125 125 124 120 109 100 100 96 93 90 88 91 90 85 82 79 78 77 76 75 74 72 71 68 68 71 73 72 70 70 68 66
206 208 228 231 228 222 209 187 202 200 193 187 187 175 154 156 142 137 130 123 113 103 99 97 102 99 93 88 85 84 84 80 76 75 75 74 75 74 71 68 66 66 69 71 72 70 69 69 66
222 206 224 226 226 226 186 175 197 209 196 144 186 189 170 168 149 139 132 125 112 101 98 98 100 98 99 95 85 83 81 78 76 72 69 73 75 74 70 67 65 66 70 71 70 69 66 70 69
209 219 228 223 220 211 170 179 165 153 153 151 154 82 87 138 147 143 138 130 120 107 103 102 101 97 95 94 88 84 78 73 76 74 71 72 74 74 73 65 64 66 72 74 74 71 69 72 73
205 225 232 229 216 184 172 188 171 171 179 184 172 131 124 145 156 158 158 156 149 139 126 109 106 102 97 90 89 85 79 74 71 68 64 60 61 62 68 69 65 67 73 77 75 75 75 70 70
201 228 221 209 197 180 179 189 182 193 212 216 204 175 158 160 167 171 170 166 160 151 137 121 113 110 101 93 87 82 78 71 66 62 56 56 59 60 63 65 65 67 72 71 75 77 64 57 60
189 215 212 195 193 193 196 184 186 216 235 338 190 160 159 169 176 178 175 170 167 159 147 130 122 115 105 99 92 87 80 73 64 60 54 55 55 52 49 46 48 54 55 52 55 54 55 53 53
210 206 196 188 158 172 180 204 217 228 237 129 136 150 165 175 181 179 173 165 167 167 158 150 137 126 116 106 96 90 82 76 70 62 54 49 50 49 48 39 43 45 44 44 42 44 44 49 49
185 182 191 205 198 203 209 224 226 240 186 161 161 170 176 180 180 175 175 176 179 174 162 149 140 131 123 114 107 97 90 84 76 64 53 50 48 42 43 45 38 37 31 24 26 38 30 32 44
156 184 213 221 215 203 206 235 229 225 174 175 177 179 178 181 178 181 181 180 178 172 160 152 145 133 126 121 111 99 95 91 79 70 58 53 49 39 37 43 36 24 18 20 26 36 31 29 33
179 210 231 208 201 199 219 242 200 185 189 195 191 187 183 182 183 182 179 176 171 165 157 152 141 131 124 114 109 101 90 82 75 70 61 53 47 35 37 38 32 14 11 19 24 24 22 13 6
208 230 235 216 195 200 220 244 204 180 199 208 203 199 192 185 185 182 178 173 164 161 157 152 138 132 123 112 102 98 93 79 68 60 51 41 34 33 34 30 22 10 11 17 17 18 6 349 353
221 230 235 229 197 216 224 239 246 221 215 220 216 209 203 199 198 184 176 168 158 152 149 144 136 129 120 113 107 100 87 76 67 58 45 41 32 22 25 25 21 13 13 13 2 14 12 348 348
233 233 243 248 220 232 235 250 257 237 228 226 220 212 209 206 189 172 166 161 153 147 145 142 139 133 128 129 130 121 97 71 58 47 36 34 32 26 23 18 17 9 359 349 353 358 9 5 6
227 234 246 246 242 255 258 263 258 236 226 227 219 211 202 190 169 161 159 156 160 156 152 148 148 141 139 134 130 121 117 89 66 49 37 28 23 18 18 22 18 4 356 357 356 2 332 342 1
230 236 243 244 264 232 279 266 233 217 210 218 217 213 203 193 182 169 166 165 161 160 163 159 153 149 146 135 121 110 107 101 70 29 26 19 13 10 7 360 358 356 348 341 340 316 316 287 294
241 242 239 233 235 245 241 269 243 210 214 217 217 210 206 195 186 175 174 174 174 171 165 160 157 156 151 146 149 151 156 150 319 344 358 360 4 1 354 349 340 328 322 306 307 314 294 267 252
236 127 211 229 231 251 227 248 260 203 230 229 217 210 207 198 191 186 183 182 178 170 167 162 157 160 158 161 168 172 179 182 160 275 333 339 348 349 344 336 328 331 312 300 292 290 292 273 262
136 120 120 173 215 243 227 228 260 218 229 226 211 208 206 201 196 193 184 178 175 171 169 167 160 158 170 174 181 189 192 194 196 240 282 300 310 318 326 319 310 305 303 295 283 277 275 280 274
178 175 202 211 219 239 182 225 253 252 229 228 220 208 202 200 197 193 186 183 181 180 179 180 176 176 179 186 197 205 209 209 213 231 252 273 284 287 297 301 294 293 289 284 283 272 271 267 269
203 210 219 233 239 241 200 232 253 296 259 247 245 228 208 204 201 203 200 195 192 191 190 193 194 195 196 203 215 220 226 227 232 237 247 255 267 274 282 282 282 282 280 277 275 271 264 260 258
188 216 248 254 278 260 236 245 277 241 244 229 221 220 214 208 208 214 210 205 201 200 202 205 205 208 210 213 218 225 230 239 247 248 249 255 263 272 270 270 271 270 269 270 270 266 263 259 257
274 179 179 211 235 249 247 245 241 216 216 204 207 212 216 215 221 224 222 220 211 208 210 211 215 217 218 217 222 230 234 243 250 254 258 257 260 266 268 267 267 267 267 265 263 262 264 260 258
177 194 220 221 243 247 255 246 221 216 204 210 224 234 233 232 236 233 234 225 214 207 205 211 216 219 222 225 230 235 239 244 250 251 257 264 267 263 261 262 262 263 263 262 258 257 257 258 259
229 218 201 219 230 233 255 263 63 223 246 238 250 257 252 246 249 246 244 231 218 212 210 214 219 220 226 233 236 241 245 248 253 256 259 262 265 265 263 260 257 257 256 255 252 255 255 254 256
Height
1512 1513 1515 1518 1517 1513 1510 1510 1512 1516 1518 1521 1522 1522 1520 1522 1524 1532 1533 1531 1533 1535 1537 1539 1541 1542 1542 1543 1544 1544 1544 1544 1544 1544 1544 1544 1544 1544 1544 1544 1544 1544 1544 1543 1543 1543 1543 1543 1543
1512 1514 1517 1517 1512 1511 1508 1509 1513 1514 1519 1522 1523 1523 1523 1526 1528 1529 1529 1530 1533 1535 1537 1539 1540 1542 1542 1543 1544 1544 1544 1545 1545 1545 1545 1545 1545 1544 1544 1544 1544 1544 1544 1544 1544 1543 1543 1543 1543
1512 1513 1517 1513 1510 1505 1505 1509 1511 1518 1520 1522 1523 1524 1525 1527 1528 1528 1529 1530 1533 1535 1537 1538 1540 1541 1542 1543 1544 1544 1545 1545 1545 1545 1545 1545 1545 1545 1545 1545 1545 1544 1544 1544 1544 1544 1544 1544 1544
1512 1515 1516 1511 1508 1507 1507 1510 1514 1518 1521 1522 1522 1525 1526 1527 1527 1527 1528 1530 1533 1535 1537 1538 1540 1541 1542 1543 1543 1544 1545 1545 1545 1545 1545 1545 1545 1545 1545 1545 1545 1545 1544 1544 1544 1544 1544 1544 1545
1512 1513 1511 1508 1506 1508 1512 1514 1516 1516 1518 1521 1522 1523 1526 1526 1525 1526 1528 1530 1533 1535 1537 1538 1539 1541 1541 1542 1543 1544 1544 1545 1545 1545 1545 1545 1545 1545 1545 1545 1545 1545 1545 1544 1544 1544 1545 1545 1545
1512 1510 1506 1504 1503 1508 1512 1515 1516 1516 1518 1520 1522 1523 1525 1525 1525 1526 1528 1530 1532 1534 1536 1537 1539 1540 1541 1542 1543 1543 1544 1545 1545 1545 1545 1545 1545 1545 1545 1545 1545 1545 1545 1545 1545 1545 1545 1545 1545
1511 1507 1502 1500 1502 1506 1511 1514 1515 1515 1516 1520 1521 1522 1524 1524 1525 1526 1528 1530 1532 1534 1535 1537 1538 1540 1541 1542 1542 1543 1544 1544 1544 1545 1545 1545 1545 1545 1545 1545 1545 1545 1545 1545 1545 1545 1545 1545 1545
1508 1507 1503 1502 1502 1503 1511 1513 1515 1515 1516 1519 1520 1520 1522 1523 1524 1526 1528 1530 1531 1533 1534 1536 1537 1539 1540 1541 1542 1542 1543 1543 1544 1544 1544 1545 1545 1545 1545 1545 1545 1545 1545 1545 1545 1545 1545 1545 1545
1507 1506 1500 1500 1502 1504 1510 1512 1514 1515 1517 1517 1518 1519 1520 1520 1522 1525 1527 1529 1530 1532 1533 1535 1536 1538 1539 1540 1541 1542 1542 1543 1543 1544 1544 1544 1544 1544 1544 1544 1544 1544 1544 1545 1545 1545 1545 1544 1545
1506 1501 1498 1503 1504 1506 1509 1511 1513 1514 1515 1516 1517 1517 1518 1519 1521 1523 1525 1526 1528 1530 1532 1533 1535 1536 1538 1539 1540 1541 1541 1542 1542 1543 1543 1543 1544 1544 1544 1544 1544 1544 1544 1544 1544 1544 1544 1544 1544
1504 1501 1503 1506 1507 1508 1509 1511 1512 1512 1512 1513 1514 1515 1515 1517 1520 1521 1523 1525 1527 1529 1530 1532 1533 1535 1536 1537 1538 1539 1540 1541 1541 1542 1542 1542 1543 1543 1543 1543 1543 1543 1543 1544 1544 1544 1544 1544 1544
1504 1505 1506 1507 1508 1509 1509 1510 1512 1511 1511 1512 1512 1513 1514 1515 1517 1519 1521 1523 1524 1526 1528 1530 1532 1533 1534 1536 1537 1538 1539 1539 1540 1541 1541 1542 1542 1542 1542 1542 1542 1542 1542 1542 1543 1543 1543 1543 1543
1504 1505 1507 1508 1508 1509 1509 1510 1510 1510 1510 1510 1511 1512 1513 1514 1516 1518 1520 1521 1523 1524 1526 1528 1530 1531 1533 1534 1535 1536 1537 1538 1539 1539 1540 1540 1541 1541 1541 1541 1541 1541 1541 1541 1542 1542 1542 1542 1542
1504 1506 1507 1507 1507 1508 1509 1509 1510 1507 1509 1509 1509 1510 1511 1512 1514 1515 1517 1519 1520 1522 1524 1526 1528 1529 1531 1532 1533 1534 1535 1536 1537 1538 1538 1539 1539 1540 1540 1540 1540 1540 1540 1540 1540 1541 1540 1541 1540
1505 1505 1505 1506 1506 1508 1508 1506 1506 1506 1507 1508 1508 1509 1510 1511 1512 1513 1514 1516 1518 1520 1521 1524 1525 1527 1528 1530 1531 1533 1534 1535 1535 1536 1536 1537 1538 1538 1539 1539 1538 1538 1539 1539 1539 1539 1539 1539 1539
1504 1501 1499 1502 1505 1506 1507 1496 1502 1504 1505 1506 1507 1507 1508 1509 1510 1511 1513 1514 1516 1517 1519 1521 1523 1524 1526 1528 1529 1531 1532 1533 1534 1534 1535 1535 1536 1536 1537 1537 1537 1537 1537 1537 1537 1537 1537 1537 1537
1499 1495 1493 1499 1504 1504 1503 1496 1501 1503 1504 1504 1505 1506 1506 1507 1508 1509 1511 1512 1513 1515 1517 1519 1520 1522 1524 1526 1527 1528 1530 1530 1531 1531 1533 1533 1534 1534 1535 1535 1535 1535 1535 1535 1535 1535 1535 1535 1535
1493 1491 1493 1494 1501 1503 1500 1497 1500 1502 1503 1502 1503 1503 1504 1504 1505 1507 1508 1510 1511 1513 1515 1517 1518 1520 1522 1523 1525 1526 1527 1528 1529 1530 1530 1531 1531 1532 1532 1533 1533 1533 1533 1533 1533 1533 1534 1534 1533
1495 1494 1492 1495 1502 1502 1497 1496 1497 1499 1501 1500 1500 1501 1501 1502 1504 1504 1506 1507 1509 1510 1512 1514 1515 1517 1519 1521 1523 1524 1525 1526 1527 1527 1528 1529 1529 1529 1530 1530 1531 1531 1531 1531 1531 1531 1531 1531 1531
1497 1495 1494 1498 1503 1502 1498 1495 1494 1496 1496 1497 1497 1498 1499 1500 1501 1502 1503 1504 1506 1508 1510 1512 1513 1515 1517 1519 1520 1522 1523 1524 1524 1525 1526 1526 1527 1527 1527 1527 1528 1528 1528 1529 1529 1529 1529 1529 1529
1496 1494 1494 1497 1502 1503 1500 1488 1488 1490 1494 1495 1495 1496 1497 1497 1498 1499 1501 1502 1504 1506 1508 1509 1511 1513 1515 1517 1518 1520 1521 1521 1522 1523 1523 1524 1524 1524 1525 1525 1525 1525 1525 1525 1526 1526 1526 1526 1527
1493 1497 1498 1500 1498 1493 1498 1483 1478 1484 1489 1490 1491 1493 1494 1495 1496 1497 1498 1500 1501 1504 1506 1508 1510 1511 1513 1514 1516 1517 1518 1518 1519 1520 1520 1521 1521 1522 1522 1522 1523 1523 1523 1523 1523 1524 1524 1524 1524
1496 1500 1500 1500 1498 1497 1497 1494 1475 1483 1484 1484 1487 1489 1491 1492 1493 1495 1496 1498 1500 1502 1504 1506 1508 1509 1510 1512 1513 1515 1516 1516 1517 1517 1518 1518 1518 1519 1519 1519 1519 1520 1520 1520 1520 1521 1521 1521 1521
1501 1501 1502 1501 1498 1495 1489 1489 1472 1478 1479 1480 1484 1486 1488 1490 1491 1493 1495 1496 1498 1499 1501 1503 1504 1506 1508 1509 1510 1512 1513 1513 1514 1514 1515 1515 1515 1515 1516 1516 1516 1516 1517 1517 1517 1517 1517 1517 1518
1499 1496 1493 1492 1491 1481 1491 1489 1476 1476 1479 1480 1482 1484 1486 1488 1489 1491 1492 1493 1495 1496 1498 1500 1501 1502 1504 1506 1507 1508 1509 1510 1510 1511 1511 1511 1511 1512 1512 1512 1512 1513 1513 1513 1513 1513 1513 1514 1514
1496 1493 1488 1483 1477 1475 1495 1485 1475 1479 1480 1481 1482 1483 1484 1486 1487 1488 1489 1490 1492 1493 1495 1496 1498 1499 1501 1502 1503 1504 1505 1506 1507 1507 1508 1508 1508 1508 1508 1508 1508 1508 1508 1509 1509 1509 1509 1510 1509
1495 1492 1493 1490 1490 1485 1475 1480 1478 1477 1479 1480 1481 1482 1483 1484 1485 1486 1487 1488 1489 1490 1492 1493 1494 1496 1497 1498 1500 1500 1501 1502 1503 1503 1503 1504 1504 1504 1504 1504 1504 1504 1504 1504 1504 1504 1504 1505 1505
1497 1494 1494 1490 1483 1474 1469 1473 1470 1472 1475 1478 1479 1480 1481 1482 1483 1484 1485 1485 1486 1488 1489 1490 1492 1493 1493 1494 1496 1497 1497 1498 1499 1499 1499 1499 1500 1500 1500 1500 1500 1500 1499 1500 1499 1499 1499 1499 1499
1498 1498 1493 1486 1483 1474 1466 1466 1470 1471 1473 1476 1478 1479 1480 1480 1481 1482 1482 1483 1484 1485 1486 1487 1488 1489 1490 1490 1492 1493 1493 1494 1494 1494 1494 1495 1495 1495 1495 1495 1495 1495 1495 1495 1495 1495 1495 1494 1494
1497 1494 1493 1487 1484 1483 1472 1470 1474 1475 1476 1477 1478 1479 1479 1479 1479 1479 1479 1480 1481 1481 1482 1483 1485 1485 1486 1487 1488 1488 1489 1489 1490 1490 1490 1490 1490 1490 1490 1490 1490 1490 1490 1490 1489 1489 1489 1489 1489